Staples, MN

2:29 PM CST on November 21, 2017 (GMT -0600)
Staples Municipal

Weather History for KSAZ - October, 2011

Change the Weather History Date:

Monday, October 3, 2011

  Actual Average Record
Temperature  
Mean Temperature 60 °F -  
Max Temperature 78 °F 58 °F 78 °F (1997)
Min Temperature 42 °F 37 °F 24 °F (1996)
Degree Days  
Heating Degree Days 5    
Growing Degree Days 10 (Base 50)    
Moisture  
Dew Point 41 °F    
Average Humidity 52    
Maximum Humidity 87    
Minimum Humidity 23    
Precipitation  
Precipitation 0.00 in - - ()
Sea Level Pressure  
Sea Level Pressure 30.12 in    
Wind  
Wind Speed 5 mph (SSE)    
Max Wind Speed 14 mph    
Max Gust Speed 22 mph    
Visibility 10 miles    
Events      
Averages and records for this station are not official NWS values.
T = Trace of Precipitation, MM = Missing Value Source: NWS Daily Summary

Daily Weather History Graph

Daily Weather History Graph

Search for Another Location

Airport or City:

Trip Planner

Search our weather history database for the weather conditions in past years. The results will help you decide how hot, cold, wet, or windy it might be!

Date:

Astronomy

Oct. 03, 2011 Rise Set
Actual Time 7:20 AM CDT 6:55 PM CDT
Civil Twilight 6:50 AM CDT 7:25 PM CDT
Nautical Twilight 6:15 AM CDT 8:00 PM CDT
Astronomical Twilight 5:39 AM CDT 8:35 PM CDT
Moon 2:37 PM CDT (10/3) 11:42 PM CDT (10/3)
Length of Visible Light 12h 35m
Length of Day
11h 35m
Waxing Crescent, 45% of the Moon is Illuminated
Oct 3
Waxing Crescent
Oct 3
First Quarter
Oct 11
Full
Oct 19
Last Quarter
Oct 26
New

Hourly Weather History & Observations

Time (CDT) Temp. Windchill Dew Point Humidity Pressure Visibility Wind Dir Wind Speed Gust Speed Precip Events Conditions
12:13 AM 55.4 °F - 42.8 °F 63% 30.11 in 10.0 mi SSE 4.6 mph - N/A   Clear
12:33 AM 53.6 °F - 42.8 °F 67% 30.11 in 10.0 mi SSE 3.5 mph - N/A   Clear
12:53 AM 53.6 °F - 42.8 °F 67% 30.11 in 10.0 mi SSE 3.5 mph - N/A   Clear
1:13 AM 51.8 °F - 42.8 °F 71% 30.11 in 10.0 mi SSE 3.5 mph - N/A   Clear
1:33 AM 53.6 °F - 42.8 °F 67% 30.11 in 10.0 mi SSE 3.5 mph - N/A   Clear
2:12 AM 48.2 °F - 42.8 °F 82% 30.12 in 10.0 mi Calm Calm - N/A   Clear
3:01 AM 50.0 °F - 42.8 °F 76% 30.12 in 10.0 mi South 3.5 mph - N/A   Clear
3:41 AM 50.0 °F - 42.8 °F 76% 30.12 in 10.0 mi South 3.5 mph - N/A   Clear
4:01 AM 48.2 °F - 42.8 °F 82% 30.11 in 10.0 mi SSE 3.5 mph - N/A   Clear
4:21 AM 48.2 °F - 41.0 °F 76% 30.12 in 10.0 mi South 4.6 mph - N/A   Clear
4:41 AM 48.2 °F - 41.0 °F 76% 30.12 in 10.0 mi SSE 3.5 mph - N/A   Clear
5:01 AM 48.2 °F - 41.0 °F 76% 30.12 in 10.0 mi SE 2.3 mph - N/A   Clear
5:21 AM 44.6 °F - 39.2 °F 81% 30.13 in 10.0 mi SE 2.3 mph - N/A   Clear
5:41 AM 44.6 °F 43.1 °F 39.2 °F 81% 30.13 in 10.0 mi SE 3.5 mph - N/A   Clear
6:01 AM 42.8 °F 41.1 °F 39.2 °F 87% 30.13 in 10.0 mi SSE 3.5 mph - N/A   Clear
6:21 AM 42.8 °F 41.1 °F 39.2 °F 87% 30.13 in 10.0 mi SSE 3.5 mph - N/A   Clear
6:41 AM 42.8 °F 41.1 °F 39.2 °F 87% 30.13 in 10.0 mi SSE 3.5 mph - N/A   Clear
7:01 AM 44.6 °F 43.1 °F 39.2 °F 81% 30.14 in 10.0 mi SE 3.5 mph - N/A   Clear
7:21 AM 44.6 °F 43.1 °F 39.2 °F 81% 30.14 in 10.0 mi SE 3.5 mph - N/A   Clear
8:01 AM 48.2 °F - 41.0 °F 76% 30.15 in 10.0 mi SE 4.6 mph - N/A   Clear
8:21 AM 48.2 °F - 42.8 °F 82% 30.15 in 10.0 mi SSE 3.5 mph - N/A   Clear
8:41 AM 51.8 °F - 42.8 °F 71% 30.15 in 10.0 mi SE 3.5 mph - N/A   Clear
9:01 AM 53.6 °F - 42.8 °F 67% 30.15 in 10.0 mi SSE 3.5 mph - N/A   Clear
9:21 AM 55.4 °F - 42.8 °F 63% 30.15 in 10.0 mi SSE 6.9 mph - N/A   Clear
9:41 AM 57.2 °F - 42.8 °F 59% 30.15 in 10.0 mi SSE 5.8 mph - N/A   Clear
10:22 AM - - - N/A% - - North - - N/A   Unknown
10:41 AM 64.4 °F - 42.8 °F 45% 30.15 in 10.0 mi SSE 6.9 mph - N/A   Unknown
11:01 AM 66.2 °F - 42.8 °F 43% 30.15 in 10.0 mi SSE 6.9 mph - N/A   Clear
11:21 AM 69.8 °F - 41.0 °F 35% 30.15 in 10.0 mi SSE 9.2 mph - N/A   Clear
11:41 AM 71.6 °F - 41.0 °F 33% 30.14 in 10.0 mi South 9.2 mph - N/A   Clear
12:01 PM 73.4 °F - 39.2 °F 29% 30.14 in 10.0 mi South 10.4 mph - N/A   Clear
12:21 PM 75.2 °F - 39.2 °F 27% 30.14 in 10.0 mi South 11.5 mph - N/A   Clear
1:01 PM 77.0 °F - 37.4 °F 24% 30.13 in 10.0 mi South 12.7 mph - N/A   Clear
1:41 PM 78.8 °F - 39.2 °F 24% 30.13 in 10.0 mi South 13.8 mph 21.9 mph N/A   Clear
2:01 PM 78.8 °F - 39.2 °F 24% 30.12 in 10.0 mi South 11.5 mph - N/A   Clear
2:21 PM 78.8 °F - 39.2 °F 24% 30.12 in 10.0 mi SSE 12.7 mph 21.9 mph N/A   Clear
3:01 PM 78.8 °F - 39.2 °F 24% 30.11 in 10.0 mi South 13.8 mph 19.6 mph N/A   Clear
3:41 PM 78.8 °F - 39.2 °F 24% 30.10 in 10.0 mi SSE 10.4 mph 17.3 mph N/A   Clear
4:01 PM 78.8 °F - 37.4 °F 23% 30.10 in 10.0 mi South 10.4 mph - N/A   Clear
4:21 PM 78.8 °F - 39.2 °F 24% 30.11 in 10.0 mi South 13.8 mph 17.3 mph N/A   Clear
4:41 PM 78.8 °F - 37.4 °F 23% 30.10 in 10.0 mi South 12.7 mph 17.3 mph N/A   Clear
5:01 PM 78.8 °F - 39.2 °F 24% 30.10 in 10.0 mi SSE 6.9 mph - N/A   Clear
5:21 PM 77.0 °F - 37.4 °F 24% 30.10 in 10.0 mi South 10.4 mph - N/A   Clear
5:41 PM 75.2 °F - 39.2 °F 27% 30.10 in 10.0 mi SSE 10.4 mph - N/A   Clear
6:01 PM 75.2 °F - 39.2 °F 27% 30.10 in 10.0 mi SSE 5.8 mph - N/A   Clear
6:21 PM 73.4 °F - 37.4 °F 27% 30.10 in 10.0 mi SE 6.9 mph - N/A   Clear
6:41 PM 71.6 °F - 39.2 °F 31% 30.10 in 10.0 mi SE 4.6 mph - N/A   Clear
7:21 PM 68.0 °F - 39.2 °F 35% 30.10 in 10.0 mi ESE 2.3 mph - N/A   Clear
7:41 PM 66.2 °F - 39.2 °F 37% 30.11 in 10.0 mi ESE 2.3 mph - N/A   Clear
8:21 PM 64.4 °F - 41.0 °F 42% 30.11 in 10.0 mi ESE 3.5 mph - N/A   Clear
8:41 PM 62.6 °F - 41.0 °F 45% 30.11 in 10.0 mi SE 3.5 mph - N/A   Clear
9:01 PM 62.6 °F - 42.8 °F 48% 30.11 in 10.0 mi SE 3.5 mph - N/A   Clear
9:21 PM 62.6 °F - 42.8 °F 48% 30.11 in 10.0 mi SE 3.5 mph - N/A   Clear
9:41 PM 60.8 °F - 42.8 °F 52% 30.11 in 10.0 mi SE 4.6 mph - N/A   Clear
10:41 PM 59.0 °F - 41.0 °F 51% 30.12 in 10.0 mi SE 4.6 mph - N/A   Clear